Weather reports worldwide

Advertisment
Hawarden, United Kingdom (3321): temperature & dewpoint: 18.03.2019 16:00:00 - 24.03.2019 16:00:00 (GMT)Hawarden, United Kingdom (3321): temperature -20cm & temperature -100cm: 18.03.2019 16:00:00 - 24.03.2019 16:00:00 (GMT)Hawarden, United Kingdom (3321): wind speed & gusts: 18.03.2019 16:00:00 - 24.03.2019 16:00:00 (GMT)Hawarden, United Kingdom (3321): wind direction: 18.03.2019 16:00:00 - 24.03.2019 16:00:00 (GMT)Hawarden, United Kingdom (3321): reduced air pressure: 18.03.2019 16:00:00 - 24.03.2019 16:00:00 (GMT)Hawarden, United Kingdom (3321): visibility: 18.03.2019 16:00:00 - 24.03.2019 16:00:00 (GMT)Hawarden, United Kingdom (3321): sunshine duration: 18.03.2019 16:00:00 - 24.03.2019 16:00:00 (GMT)Hawarden, United Kingdom (3321): precipitation: 18.03.2019 16:00:00 - 24.03.2019 16:00:00 (GMT)
Date & Time tt [°C] td [°C] tt -20cm [°C] tt -100cm [°C] ff [km/h] ff [kn] fx [km/h] fx [kn] dd ppp [hPa] vv [km] sd [min] rr [mm]
24.03.2019 16:00:00 11,0 2,6 - - 26 14 - - WNW 1029,5 10 54 0,0
24.03.2019 15:00:00 11,1 1,7 - - 26 14 48 26 W 1029,8 10 60 0,0
24.03.2019 14:00:00 11,1 1,1 - - 24 13 - - WNW 1030,0 10 60 0,0
24.03.2019 13:00:00 10,9 1,7 - - 18 10 - - WNW 1030,7 10 48 0,0
24.03.2019 12:00:00 9,7 0,8 - - 21 11 - - WNW 1031,5 10 42 0,0
24.03.2019 11:00:00 9,6 -0,1 - - 18 10 - - WNW 1031,8 10 54 0,0
24.03.2019 10:00:00 9,0 0,5 - - 13 7 - - WNW 1032,1 10 60 0,0
24.03.2019 09:00:00 8,2 1,9 9,2 8,7 15 8 - - WNW 1032,3 10 60 0,0
24.03.2019 08:00:00 6,8 1,0 - - 11 6 - - W 1032,1 30 60 0,0
24.03.2019 07:00:00 3,6 -0,1 - - 9 5 - - WSW 1031,8 40 24 0,0
24.03.2019 06:00:00 0,8 -0,6 - - 5 3 - - NNW 1032,0 30 0 0,0
24.03.2019 05:00:00 0,6 -0,8 - - 4 2 - - WSW 1031,8 22 0 0,0
24.03.2019 04:00:00 2,3 1,0 - - 2 1 - - SW 1032,0 22 0 0,0
24.03.2019 03:00:00 3,5 1,5 - - 5 3 - - SSW 1032,5 25 0 0,0
24.03.2019 02:00:00 4,2 2,2 - - 4 2 - - SW 1032,8 25 0 0,0
24.03.2019 01:00:00 4,6 2,4 - - 2 1 - - ENE 1033,1 18 0 0,0
24.03.2019 00:00:00 4,5 2,5 - - 5 3 - - WSW 1033,2 21 - 0,0
23.03.2019 23:00:00 5,3 2,8 - - 5 3 - - W 1034,1 20 0 0,0
23.03.2019 22:00:00 5,6 2,6 - - 5 3 - - W 1034,6 19 0 0,0
23.03.2019 21:00:00 5,6 2,6 - - 4 2 - - W 1034,7 19 0 0,0
23.03.2019 20:00:00 6,4 2,1 - - 4 2 - - W 1034,4 20 0 0,0
23.03.2019 19:00:00 7,2 1,9 - - 8 4 - - NNW 1034,1 10 0 0,0
23.03.2019 18:00:00 7,7 1,6 - - 9 5 - - N 1033,9 10 0 0,0
23.03.2019 17:00:00 8,5 2,2 - - 9 5 - - N 1033,9 10 6 0,0
23.03.2019 16:00:00 9,0 1,3 - - 11 6 - - NNW 1034,1 10 0 0,0
23.03.2019 15:00:00 8,9 0,3 - - 11 6 - - NNW 1034,2 10 24 0,0
23.03.2019 14:00:00 9,3 0,0 - - 13 7 - - NNW 1034,5 10 48 0,0
23.03.2019 13:00:00 9,9 0,0 - - 13 7 - - NNW 1034,8 10 60 0,0
23.03.2019 12:00:00 9,3 -0,7 - - 13 7 - - NNW 1034,6 10 54 0,0
23.03.2019 11:00:00 9,1 0,7 - - 15 8 - - NNW 1034,5 10 54 0,0
23.03.2019 10:00:00 8,5 2,2 - - 16 9 - - NW 1034,1 10 0 0,0
23.03.2019 09:00:00 8,0 3,3 9,7 8,5 11 6 - - NW 1033,7 10 0 0,0
23.03.2019 08:00:00 7,4 3,5 - - 5 3 - - - 1033,2 10 0 0,0
23.03.2019 07:00:00 6,7 3,8 - - 4 2 - - NW 1032,5 17 0 0,0
23.03.2019 06:00:00 6,7 4,0 - - 5 3 - - WNW 1031,7 13 0 0,0
23.03.2019 05:00:00 7,2 4,3 - - 8 4 - - WNW 1031,0 14 0 0,0
23.03.2019 04:00:00 7,4 4,1 - - 9 5 - - W 1030,4 17 0 0,0
23.03.2019 03:00:00 7,8 4,2 - - 8 4 - - WNW 1030,2 16 0 0,0
23.03.2019 02:00:00 8,0 4,8 - - 8 4 - - WNW 1029,6 19 0 0,0
23.03.2019 01:00:00 8,4 4,6 - - 9 5 - - WNW 1029,1 18 0 0,0
23.03.2019 00:00:00 9,0 4,4 - - 15 8 - - WNW 1028,0 25 - 0,0
22.03.2019 23:00:00 9,5 5,8 - - 13 7 - - WNW 1027,8 26 0 0,0
22.03.2019 22:00:00 9,5 6,2 - - 11 6 - - WSW 1027,3 35 0 0,0
22.03.2019 21:00:00 9,4 6,9 - - 13 7 - - W 1026,6 10 0 0,2
22.03.2019 20:00:00 10,2 8,8 - - 24 13 - - NW 1026,1 10 0 0,2
22.03.2019 19:00:00 11,2 7,6 - - 26 14 52 28 WSW 1024,8 40 0 0,0
22.03.2019 18:00:00 11,4 7,5 - - 34 18 54 29 WSW 1024,5 10 0 0,0
22.03.2019 17:00:00 11,5 7,3 - - 35 19 55 30 WSW 1023,6 10 0 0,0
22.03.2019 16:00:00 12,0 7,0 - - 15 8 - - - 1023,7 10 0 0,0
22.03.2019 15:00:00 12,5 7,5 - - 26 14 46 25 SW 1023,6 10 0 0,0
22.03.2019 14:00:00 12,6 7,2 - - 22 12 - - SW 1024,1 10 0 0,0
22.03.2019 13:00:00 11,9 6,8 - - 21 11 50 27 SW 1024,5 10 0 0,0
22.03.2019 12:00:00 12,5 6,2 - - 35 19 52 28 SSW 1024,2 10 18 0,0
22.03.2019 11:00:00 11,3 6,2 - - 13 7 - - SSE 1024,8 10 0 0,0
22.03.2019 10:00:00 10,9 5,5 - - 18 10 - - SSW 1025,4 10 0 0,0
22.03.2019 09:00:00 10,6 5,6 9,7 8,2 29 16 - - SW 1025,8 10 0 0,0
22.03.2019 08:00:00 11,1 7,1 - - 13 7 - - S 1025,3 10 0 0,0
22.03.2019 07:00:00 10,6 8,0 - - 13 7 - - SSE 1025,4 10 0 0,0
22.03.2019 06:00:00 10,3 8,1 - - 13 7 - - S 1025,5 24 0 0,0
22.03.2019 05:00:00 10,4 8,0 - - 13 7 - - SSE 1025,8 45 0 0,0
22.03.2019 04:00:00 10,4 7,8 - - 11 6 - - SSE 1026,5 35 0 0,0
22.03.2019 03:00:00 10,6 7,6 - - 11 6 - - S 1027,3 45 0 0,0
22.03.2019 02:00:00 10,8 7,8 - - 15 8 - - S 1028,0 40 0 0,0
22.03.2019 01:00:00 10,8 8,5 - - 8 4 - - S 1028,2 24 0 0,0
22.03.2019 00:00:00 10,4 8,6 - - 9 5 - - SSE 1028,9 29 - 0,0
21.03.2019 23:00:00 10,1 8,3 - - 8 4 - - S 1029,8 24 0 0,0
21.03.2019 22:00:00 9,9 8,1 - - 2 1 - - SE 1030,1 26 0 0,0
21.03.2019 21:00:00 9,7 7,6 - - 8 4 - - SE 1030,2 10 0 0,0
21.03.2019 20:00:00 11,4 7,8 - - 2 1 - - - 1030,8 10 0 0,0
21.03.2019 19:00:00 12,2 9,0 - - 13 7 - - SSE 1030,5 10 0 0,0
21.03.2019 18:00:00 13,0 9,2 - - 15 8 - - SSE 1030,9 10 0 0,0
21.03.2019 17:00:00 13,9 9,3 - - 13 7 - - S 1031,0 10 0 0,0
21.03.2019 16:00:00 15,0 9,7 - - 9 5 - - SSE 1031,2 10 0 0,0
21.03.2019 15:00:00 15,4 8,9 - - 4 2 - - - 1031,6 10 30 0,0
21.03.2019 14:00:00 15,2 8,5 - - 8 4 - - WSW 1032,2 10 54 0,0
21.03.2019 13:00:00 14,0 8,3 - - 15 8 - - SW 1032,8 10 24 0,0
21.03.2019 12:00:00 13,7 8,6 - - 4 2 - - - 1033,2 10 6 0,0
21.03.2019 11:00:00 13,2 9,4 - - 9 5 - - WSW 1033,3 10 0 0,0
21.03.2019 10:00:00 12,2 9,1 - - 11 6 - - WSW 1033,2 10 0 0,0
21.03.2019 09:00:00 11,2 8,6 9,2 8,2 18 10 - - WSW 1032,8 10 6 0,0
21.03.2019 08:00:00 10,3 9,1 - - 8 4 - - SSE 1032,5 10 0 0,0
21.03.2019 07:00:00 9,1 7,8 - - 4 2 - - - 1032,0 10 0 0,0
21.03.2019 06:00:00 9,0 7,5 - - 9 5 - - SW 1031,5 50 0 0,0
21.03.2019 05:00:00 9,3 7,0 - - 4 2 - - NW 1031,1 45 0 0,0
21.03.2019 04:00:00 10,6 8,3 - - 11 6 - - WNW 1030,5 50 0 0,0
21.03.2019 03:00:00 10,6 8,6 - - 15 8 - - SSW 1030,2 50 0 0,0
21.03.2019 02:00:00 10,8 8,3 - - 13 7 - - SSW 1030,6 50 0 0,0
21.03.2019 01:00:00 11,5 8,1 - - 21 11 - - WSW 1030,9 50 0 0,0
21.03.2019 00:00:00 10,5 8,1 - - 18 10 - - SSW 1031,1 50 - 0,0
20.03.2019 23:00:00 10,0 8,1 - - 18 10 - - S 1031,0 50 0 0,0
20.03.2019 22:00:00 9,8 7,7 - - 13 7 - - ESE 1031,0 45 0 0,0
20.03.2019 21:00:00 10,1 7,3 - - 18 10 - - SSW 1031,2 10 0 0,0
20.03.2019 20:00:00 11,2 7,6 - - 15 8 - - SSW 1031,0 10 0 0,0
20.03.2019 19:00:00 12,1 7,2 - - 11 6 - - SW 1030,5 10 6 0,0
20.03.2019 18:00:00 13,8 7,8 - - 11 6 - - SW 1030,1 10 36 0,0
20.03.2019 17:00:00 16,0 8,4 - - 24 13 - - WSW 1029,7 10 36 0,0
20.03.2019 16:00:00 18,0 10,8 - - 9 5 - - W 1029,5 10 54 0,0
20.03.2019 15:00:00 18,3 11,3 - - 21 11 - - NW 1029,5 10 48 0,0
20.03.2019 14:00:00 18,1 11,1 - - 11 6 - - SE 1029,6 10 60 0,0
20.03.2019 13:00:00 18,2 12,7 - - 8 4 - - SSE 1030,2 30 60 0,0
20.03.2019 12:00:00 16,3 11,3 - - 9 5 - - ESE 1030,3 45 36 0,0
20.03.2019 11:00:00 14,9 10,5 - - 9 5 - - SE 1030,3 10 60 0,0
20.03.2019 10:00:00 13,1 9,8 - - 9 5 - - SE 1030,4 10 60 0,0
20.03.2019 09:00:00 11,6 9,2 8,4 8,0 8 4 - - SE 1030,6 10 60 0,0
20.03.2019 08:00:00 7,6 7,2 - - 5 3 - - S 1030,6 22 6 0,0
20.03.2019 07:00:00 6,5 6,1 - - 8 4 - - SSE 1030,2 10 0 0,0
20.03.2019 06:00:00 6,7 6,2 - - 9 5 - - S 1029,7 13 0 0,0
20.03.2019 05:00:00 7,3 6,7 - - 8 4 - - S 1029,3 30 0 0,0
20.03.2019 04:00:00 6,7 6,0 - - 8 4 - - SSE 1029,3 24 0 0,0
20.03.2019 03:00:00 7,5 6,2 - - 2 1 - - N 1029,0 40 0 0,0
20.03.2019 02:00:00 8,1 6,4 - - 4 2 - - ENE 1028,8 50 0 0,0
20.03.2019 01:00:00 9,8 7,7 - - 18 10 - - WSW 1028,5 50 0 0,0
20.03.2019 00:00:00 9,6 7,7 - - 16 9 - - SW 1028,6 50 - 0,0
19.03.2019 23:00:00 10,3 8,0 - - 18 10 - - SW 1028,3 50 0 0,0
19.03.2019 22:00:00 10,1 7,9 - - 15 8 - - SW 1027,8 10 0 0,0
19.03.2019 21:00:00 9,1 7,5 - - 15 8 - - SW 1027,6 10 0 0,0
19.03.2019 20:00:00 10,6 7,4 - - 22 12 - - WSW 1027,3 10 0 0,0
19.03.2019 19:00:00 11,3 7,3 - - 11 6 - - W 1027,1 10 0 0,0
19.03.2019 18:00:00 11,7 7,5 - - 5 3 - - - 1026,7 10 0 0,0
19.03.2019 17:00:00 11,7 7,5 - - 9 5 - - W 1026,2 10 0 0,0
19.03.2019 16:00:00 11,6 7,2 - - 15 8 - - SW 1025,6 10 6 0,0
19.03.2019 15:00:00 12,2 7,3 - - 21 11 - - SW 1024,9 10 18 0,0
19.03.2019 14:00:00 11,4 7,0 - - 18 10 - - SW 1025,7 10 0 0,0
19.03.2019 13:00:00 12,2 7,5 - - 22 12 - - SW 1025,9 10 0 0,0
19.03.2019 12:00:00 12,4 7,7 - - 18 10 - - SW 1025,7 10 0 0,0
19.03.2019 11:00:00 12,0 6,9 - - 11 6 - - W 1025,9 30 0 0,0
19.03.2019 10:00:00 11,1 8,9 - - 8 4 - - SE 1025,6 10 0 0,0
19.03.2019 09:00:00 9,8 8,5 7,9 8,0 4 2 - - - 1025,6 10 36 0,0
19.03.2019 08:00:00 7,4 7,1 - - 2 1 - - - 1025,3 10 6 0,0
19.03.2019 07:00:00 6,9 6,6 - - 4 2 - - SSW 1025,0 10 0 0,0
19.03.2019 06:00:00 7,1 6,8 - - 8 4 - - SSW 1024,5 21 0 0,0
19.03.2019 05:00:00 6,6 6,4 - - 5 3 - - SSW 1024,3 12 0 0,0
19.03.2019 04:00:00 6,6 6,4 - - 4 2 - - SSE 1024,0 8 0 0,0
19.03.2019 03:00:00 6,4 6,0 - - 2 1 - - NW 1023,8 3,6 0 0,0
19.03.2019 02:00:00 6,7 6,3 - - 2 1 - - WSW 1023,9 6 0 0,0
19.03.2019 01:00:00 7,0 6,5 - - 2 1 - - N 1023,7 9 0 0,0
19.03.2019 00:00:00 7,2 6,5 - - 2 1 - - ESE 1023,5 9 - 0,0
18.03.2019 23:00:00 8,0 7,5 - - 2 1 - - W 1023,2 20 0 0,2
18.03.2019 22:00:00 7,8 7,3 - - 0 0 - - N 1022,9 24 0 0,0
18.03.2019 21:00:00 7,7 7,3 - - 2 1 - - - 1022,6 10 0 0,0
18.03.2019 20:00:00 7,7 7,4 - - 2 1 - - - 1022,1 10 0 0,0
18.03.2019 19:00:00 7,6 7,2 - - 8 4 - - S 1021,7 6 0 0,0
18.03.2019 18:00:00 7,5 7,0 - - 8 4 - - SSE 1021,2 5 0 0,8
18.03.2019 17:00:00 7,8 6,9 - - 5 3 - - SE 1020,9 3,9 0 1,2
18.03.2019 16:00:00 8,5 7,0 - - 9 5 - - SE 1020,3 10 0 0,4

tt = temperature
td = dewpoint
tt -20cm = temperature -20cm
tt -100cm = temperature -100cm
ff = wind speed
fx = gusts
dd = wind direction
ppp = reduced air pressure
vv = visibility
sd = sunshine duration
rr = precipitation

Next stations